sat.trackr.live / text

‹ back to catalog

STARLINK-36397

NORAD 67538 · 2026-014G

PAYLOAD ACTIVE UNKNOWN

§ Identity

Operator
Country
US
Launch date
2026-01-22
Launch site
AFWTR
Launch vehicle
Mass (kg)
RCS (m²)

Purposes: comms

External: N2YO · Heavens-Above · Gunter

§ Orbital elements

Epoch: 2026-09-18T02:39:37.291392Z

Period
93.91 min
Inclination
97.2852°
Eccentricity
0.0002119
Mean motion
15.33446249 rev/d
Perigee alt
464.1 km
Apogee alt
467.0 km
Semi-major
6,843.7 km
B*
6.7291e-4
RAAN
146.5300°
Arg perigee
83.3890°
Mean anomaly
276.7594°
Rev number
3,827

§ Raw data

STARLINK-363971 67538U 26014G   26261.11084828  .00021713  00000+0  67291-3 0  99922 67538  97.2852 146.5300 0002119  83.3890 276.7594 15.33446249 38278

JSON: /api/v1/satellites/67538 · /tle

For live sub-satellite position, see the globe view (requires WebGL).

§ Visibility from observer

Set your observer location to see the next 7 days of passes ≥ 10°. The values pass through the URL so the page stays shareable.

No JS? Fill the form by hand. The geolocation button needs JavaScript.